Year,Month,Day,Hour,Minute,Value (Times are PST for temperature in C)
2006,06,21,00,00,8.30
2006,06,21,00,01,8.30
2006,06,21,00,02,8.30
2006,06,21,00,03,8.30
2006,06,21,00,04,8.30
2006,06,21,00,05,8.30
2006,06,21,00,06,8.30
2006,06,21,00,07,8.30
2006,06,21,00,08,8.30
2006,06,21,00,09,8.30
2006,06,21,00,10,8.30
2006,06,21,00,11,8.30
2006,06,21,00,12,8.20
2006,06,21,00,13,8.20
2006,06,21,00,14,8.20
2006,06,21,00,15,8.20
2006,06,21,00,16,8.20
2006,06,21,00,17,8.20
2006,06,21,00,18,8.20
2006,06,21,00,19,8.20
2006,06,21,00,20,8.20
2006,06,21,00,21,8.20
2006,06,21,00,22,8.20
2006,06,21,00,23,8.20
2006,06,21,00,24,8.10
2006,06,21,00,25,8.10
2006,06,21,00,26,8.10
2006,06,21,00,27,8.10
2006,06,21,00,28,8.10
2006,06,21,00,29,8.10
2006,06,21,00,30,8.00
2006,06,21,00,31,8.00
2006,06,21,00,32,8.00
2006,06,21,00,33,8.00
2006,06,21,00,34,8.00
2006,06,21,00,35,8.00
2006,06,21,00,36,8.00
2006,06,21,00,37,7.90
2006,06,21,00,38,7.90
2006,06,21,00,39,7.90
2006,06,21,00,40,7.90
2006,06,21,00,41,7.90
2006,06,21,00,42,7.90
2006,06,21,00,43,7.90
2006,06,21,00,44,7.90
2006,06,21,00,45,7.90
2006,06,21,00,46,7.90
2006,06,21,00,47,7.90
2006,06,21,00,48,7.80
2006,06,21,00,49,7.80
2006,06,21,00,50,7.80
2006,06,21,00,51,7.80
2006,06,21,00,52,7.80
2006,06,21,00,53,7.80
2006,06,21,00,54,7.80
2006,06,21,00,55,7.80
2006,06,21,00,56,7.80
2006,06,21,00,57,7.80
2006,06,21,00,58,7.80
2006,06,21,00,59,7.80
2006,06,21,01,00,7.80
2006,06,21,01,01,7.80
2006,06,21,01,02,7.80
2006,06,21,01,03,7.80
2006,06,21,01,04,7.80
2006,06,21,01,05,7.80
2006,06,21,01,06,7.80
2006,06,21,01,07,7.80
2006,06,21,01,08,7.80
2006,06,21,01,09,7.80
2006,06,21,01,10,7.70
2006,06,21,01,11,7.70
2006,06,21,01,12,7.70
2006,06,21,01,13,7.70
2006,06,21,01,14,7.70
2006,06,21,01,15,7.70
2006,06,21,01,16,7.70
2006,06,21,01,17,7.70
2006,06,21,01,18,7.70
2006,06,21,01,19,7.70
2006,06,21,01,20,7.60
2006,06,21,01,21,7.60
2006,06,21,01,22,7.60
2006,06,21,01,23,7.60
2006,06,21,01,24,7.60
2006,06,21,01,25,7.60
2006,06,21,01,26,7.60
2006,06,21,01,27,7.60
2006,06,21,01,28,7.60
2006,06,21,01,29,7.60
2006,06,21,01,30,7.60
2006,06,21,01,31,7.50
2006,06,21,01,32,7.50
2006,06,21,01,33,7.50
2006,06,21,01,34,7.50
2006,06,21,01,35,7.50
2006,06,21,01,36,7.50
2006,06,21,01,37,7.50
2006,06,21,01,38,7.50
2006,06,21,01,39,7.50
2006,06,21,01,40,7.50
2006,06,21,01,41,7.50
2006,06,21,01,42,7.50
2006,06,21,01,43,7.50
2006,06,21,01,44,7.40
2006,06,21,01,45,7.40
2006,06,21,01,46,7.40
2006,06,21,01,47,7.40
2006,06,21,01,48,7.40
2006,06,21,01,49,7.40
2006,06,21,01,50,7.40
2006,06,21,01,51,7.40
2006,06,21,01,52,7.40
2006,06,21,01,53,7.40
2006,06,21,01,54,7.40
2006,06,21,01,55,7.30
2006,06,21,01,56,7.30
2006,06,21,01,57,7.30
2006,06,21,01,58,7.30
2006,06,21,01,59,7.30
2006,06,21,02,00,7.30
2006,06,21,02,01,7.30
2006,06,21,02,02,7.30
2006,06,21,02,03,7.30
2006,06,21,02,04,7.30
2006,06,21,02,05,7.30
2006,06,21,02,06,7.30
2006,06,21,02,07,7.30
2006,06,21,02,08,7.30
2006,06,21,02,09,7.30
2006,06,21,02,10,7.30
2006,06,21,02,11,7.30
2006,06,21,02,12,7.30
2006,06,21,02,13,7.30
2006,06,21,02,14,7.30
2006,06,21,02,15,7.30
2006,06,21,02,16,7.20
2006,06,21,02,17,7.30
2006,06,21,02,18,7.20
2006,06,21,02,19,7.20
2006,06,21,02,20,7.20
2006,06,21,02,21,7.20
2006,06,21,02,22,7.20
2006,06,21,02,23,7.20
2006,06,21,02,24,7.20
2006,06,21,02,25,7.20
2006,06,21,02,26,7.20
2006,06,21,02,27,7.20
2006,06,21,02,28,7.20
2006,06,21,02,29,7.20
2006,06,21,02,30,7.20
2006,06,21,02,31,7.20
2006,06,21,02,32,7.20
2006,06,21,02,33,7.20
2006,06,21,02,34,7.20
2006,06,21,02,35,7.20
2006,06,21,02,36,7.20
2006,06,21,02,37,7.20
2006,06,21,02,38,7.20
2006,06,21,02,39,7.20
2006,06,21,02,40,7.20
2006,06,21,02,41,7.20
2006,06,21,02,42,7.20
2006,06,21,02,43,7.20
2006,06,21,02,44,7.20
2006,06,21,02,45,7.20
2006,06,21,02,46,7.20
2006,06,21,02,47,7.20
2006,06,21,02,48,7.20
2006,06,21,02,49,7.20
2006,06,21,02,50,7.20
2006,06,21,02,51,7.20
2006,06,21,02,52,7.30
2006,06,21,02,53,7.30
2006,06,21,02,54,7.30
2006,06,21,02,55,7.30
2006,06,21,02,56,7.30
2006,06,21,02,57,7.30
2006,06,21,02,58,7.30
2006,06,21,02,59,7.30
2006,06,21,03,00,7.30
2006,06,21,03,01,7.30
2006,06,21,03,02,7.30
2006,06,21,03,03,7.30
2006,06,21,03,04,7.40
2006,06,21,03,05,7.40
2006,06,21,03,06,7.40
2006,06,21,03,07,7.40
2006,06,21,03,08,7.40
2006,06,21,03,09,7.50
2006,06,21,03,10,7.50
2006,06,21,03,11,7.50
2006,06,21,03,12,7.50
2006,06,21,03,13,7.50
2006,06,21,03,14,7.60
2006,06,21,03,15,7.60
2006,06,21,03,16,7.60
2006,06,21,03,17,7.60
2006,06,21,03,18,7.70
2006,06,21,03,19,7.70
2006,06,21,03,20,7.70
2006,06,21,03,21,7.70
2006,06,21,03,22,7.80
2006,06,21,03,23,7.80
2006,06,21,03,24,7.80
2006,06,21,03,25,7.80
2006,06,21,03,26,7.80
2006,06,21,03,27,7.80
2006,06,21,03,28,7.80
2006,06,21,03,29,7.80
2006,06,21,03,30,7.80
2006,06,21,03,31,7.80
2006,06,21,03,32,7.80
2006,06,21,03,33,7.80
2006,06,21,03,34,7.80
2006,06,21,03,35,7.90
2006,06,21,03,36,7.90
2006,06,21,03,37,7.90
2006,06,21,03,38,7.90
2006,06,21,03,39,7.90
2006,06,21,03,40,7.90
2006,06,21,03,41,7.90
2006,06,21,03,42,7.90
2006,06,21,03,43,8.00
2006,06,21,03,44,8.00
2006,06,21,03,45,8.00
2006,06,21,03,46,8.00
2006,06,21,03,47,8.00
2006,06,21,03,48,8.00
2006,06,21,03,49,8.10
2006,06,21,03,50,8.10
2006,06,21,03,51,8.10
2006,06,21,03,52,8.10
2006,06,21,03,53,8.10
2006,06,21,03,54,8.10
2006,06,21,03,55,8.20
2006,06,21,03,56,8.20
2006,06,21,03,57,8.20
2006,06,21,03,58,8.20
2006,06,21,03,59,8.20
2006,06,21,04,00,8.20
2006,06,21,04,01,8.20
2006,06,21,04,02,8.20
2006,06,21,04,03,8.20
2006,06,21,04,04,8.20
2006,06,21,04,05,8.20
2006,06,21,04,06,8.20
2006,06,21,04,07,8.30
2006,06,21,04,08,8.30
2006,06,21,04,09,8.30
2006,06,21,04,10,8.30
2006,06,21,04,11,8.30
2006,06,21,04,12,8.30
2006,06,21,04,13,8.40
2006,06,21,04,14,8.40
2006,06,21,04,15,8.40
2006,06,21,04,16,8.40
2006,06,21,04,17,8.40
2006,06,21,04,18,8.40
2006,06,21,04,19,8.50
2006,06,21,04,20,8.50
2006,06,21,04,21,8.50
2006,06,21,04,22,8.50
2006,06,21,04,23,8.60
2006,06,21,04,24,8.60
2006,06,21,04,25,8.60
2006,06,21,04,26,8.60
2006,06,21,04,27,8.60
2006,06,21,04,28,8.70
2006,06,21,04,29,8.70
2006,06,21,04,30,8.70
2006,06,21,04,31,8.70
2006,06,21,04,32,8.70
2006,06,21,04,33,8.70
2006,06,21,04,34,8.70
2006,06,21,04,35,8.80
2006,06,21,04,36,8.80
2006,06,21,04,37,8.80
2006,06,21,04,38,8.80
2006,06,21,04,39,8.80
2006,06,21,04,40,8.80
2006,06,21,04,41,8.80
2006,06,21,04,42,8.80
2006,06,21,04,43,8.80
2006,06,21,04,44,8.80
2006,06,21,04,45,8.80
2006,06,21,04,46,8.80
2006,06,21,04,47,8.80
2006,06,21,04,48,8.80
2006,06,21,04,49,8.80
2006,06,21,04,50,8.80
2006,06,21,04,51,8.80
2006,06,21,04,52,8.80
2006,06,21,04,53,8.80
2006,06,21,04,54,8.80
2006,06,21,04,55,8.80
2006,06,21,04,56,8.80
2006,06,21,04,57,8.80
2006,06,21,04,58,8.80
2006,06,21,04,59,8.80
2006,06,21,05,00,8.80
2006,06,21,05,01,8.80
2006,06,21,05,02,8.80
2006,06,21,05,03,8.80
2006,06,21,05,04,8.80
2006,06,21,05,05,8.80
2006,06,21,05,06,8.80
2006,06,21,05,07,8.80
2006,06,21,05,08,8.80
2006,06,21,05,09,8.80
2006,06,21,05,10,8.80
2006,06,21,05,11,8.90
2006,06,21,05,12,8.90
2006,06,21,05,13,8.90
2006,06,21,05,14,8.90
2006,06,21,05,15,8.90
2006,06,21,05,16,8.90
2006,06,21,05,17,8.90
2006,06,21,05,18,8.90
2006,06,21,05,19,8.90
2006,06,21,05,20,8.90
2006,06,21,05,21,8.90
2006,06,21,05,22,8.90
2006,06,21,05,23,8.90
2006,06,21,05,24,8.90
2006,06,21,05,25,8.90
2006,06,21,05,26,9.00
2006,06,21,05,27,9.00
2006,06,21,05,28,9.00
2006,06,21,05,29,9.00
2006,06,21,05,30,9.00
2006,06,21,05,31,9.00
2006,06,21,05,32,9.00
2006,06,21,05,33,9.00
2006,06,21,05,34,9.00
2006,06,21,05,35,9.00
2006,06,21,05,36,9.00
2006,06,21,05,37,9.00
2006,06,21,05,38,9.00
2006,06,21,05,39,9.00
2006,06,21,05,40,9.00
2006,06,21,05,41,9.00
2006,06,21,05,42,9.10
2006,06,21,05,43,9.10
2006,06,21,05,44,9.10
2006,06,21,05,45,9.10
2006,06,21,05,46,9.10
2006,06,21,05,47,9.10
2006,06,21,05,48,9.10
2006,06,21,05,49,9.10
2006,06,21,05,50,9.10
2006,06,21,05,51,9.10
2006,06,21,05,52,9.10
2006,06,21,05,53,9.10
2006,06,21,05,54,9.10
2006,06,21,05,55,9.20
2006,06,21,05,56,9.20
2006,06,21,05,57,9.20
2006,06,21,05,58,9.20
2006,06,21,05,59,9.20
2006,06,21,06,00,9.20
2006,06,21,06,01,9.20
2006,06,21,06,02,9.20
2006,06,21,06,03,9.20
2006,06,21,06,04,9.20
2006,06,21,06,05,9.20
2006,06,21,06,06,9.20
2006,06,21,06,07,9.20
2006,06,21,06,08,9.20
2006,06,21,06,09,9.20
2006,06,21,06,10,9.20
2006,06,21,06,11,9.20
2006,06,21,06,12,9.20
2006,06,21,06,13,9.30
2006,06,21,06,14,9.30
2006,06,21,06,15,9.30
2006,06,21,06,16,9.30
2006,06,21,06,17,9.30
2006,06,21,06,18,9.30
2006,06,21,06,19,9.30
2006,06,21,06,20,9.30
2006,06,21,06,21,9.30
2006,06,21,06,22,9.40
2006,06,21,06,23,9.40
2006,06,21,06,24,9.40
2006,06,21,06,25,9.40
2006,06,21,06,26,9.40
2006,06,21,06,27,9.40
2006,06,21,06,28,9.50
2006,06,21,06,29,9.50
2006,06,21,06,30,9.50
2006,06,21,06,31,9.50
2006,06,21,06,32,9.50
2006,06,21,06,33,9.60
2006,06,21,06,34,9.60
2006,06,21,06,35,9.60
2006,06,21,06,36,9.60
2006,06,21,06,37,9.60
2006,06,21,06,38,9.70
2006,06,21,06,39,9.70
2006,06,21,06,40,9.70
2006,06,21,06,41,9.70
2006,06,21,06,42,9.70
2006,06,21,06,43,9.70
2006,06,21,06,44,9.70
2006,06,21,06,45,9.70
2006,06,21,06,46,9.80
2006,06,21,06,47,9.80
2006,06,21,06,48,9.80
2006,06,21,06,49,9.80
2006,06,21,06,50,9.80
2006,06,21,06,51,9.90
2006,06,21,06,52,9.90
2006,06,21,06,53,9.90
2006,06,21,06,54,9.90
2006,06,21,06,55,9.90
2006,06,21,06,56,9.90
2006,06,21,06,57,9.90
2006,06,21,06,58,10.00
2006,06,21,06,59,10.10
2006,06,21,07,00,10.10
2006,06,21,07,01,10.10
2006,06,21,07,02,10.10
2006,06,21,07,03,10.10
2006,06,21,07,04,10.10
2006,06,21,07,05,10.10
2006,06,21,07,06,10.20
2006,06,21,07,07,10.20
2006,06,21,07,08,10.20
2006,06,21,07,09,10.30
2006,06,21,07,10,10.30
2006,06,21,07,11,10.30
2006,06,21,07,12,10.30
2006,06,21,07,13,10.30
2006,06,21,07,14,10.40
2006,06,21,07,15,10.40
2006,06,21,07,16,10.40
2006,06,21,07,17,10.40
2006,06,21,07,18,10.40
2006,06,21,07,19,10.40
2006,06,21,07,20,10.50
2006,06,21,07,21,10.60
2006,06,21,07,22,10.60
2006,06,21,07,23,10.60
2006,06,21,07,24,10.60
2006,06,21,07,25,10.60
2006,06,21,07,26,10.60
2006,06,21,07,27,10.70
2006,06,21,07,28,10.70
2006,06,21,07,29,10.70
2006,06,21,07,30,10.80
2006,06,21,07,31,10.80
2006,06,21,07,32,10.80
2006,06,21,07,33,10.90
2006,06,21,07,34,10.90
2006,06,21,07,35,10.90
2006,06,21,07,36,10.90
2006,06,21,07,37,11.00
2006,06,21,07,38,11.10
2006,06,21,07,39,11.10
2006,06,21,07,40,11.10
2006,06,21,07,41,11.10
2006,06,21,07,42,11.20
2006,06,21,07,43,11.20
2006,06,21,07,44,11.30
2006,06,21,07,45,11.30
2006,06,21,07,46,11.40
2006,06,21,07,47,11.40
2006,06,21,07,48,11.40
2006,06,21,07,49,11.60
2006,06,21,07,50,11.60
2006,06,21,07,51,11.60
2006,06,21,07,52,11.60
2006,06,21,07,53,11.60
2006,06,21,07,54,11.70
2006,06,21,07,55,11.70
2006,06,21,07,56,11.80
2006,06,21,07,57,11.80
2006,06,21,07,58,11.80
2006,06,21,07,59,11.80
2006,06,21,08,00,11.80
2006,06,21,08,01,11.90
2006,06,21,08,02,11.90
2006,06,21,08,03,12.00
2006,06,21,08,04,12.00
2006,06,21,08,05,12.10
2006,06,21,08,06,12.10
2006,06,21,08,07,12.10
2006,06,21,08,08,12.20
2006,06,21,08,09,12.20
2006,06,21,08,10,12.30
2006,06,21,08,11,12.30
2006,06,21,08,12,12.30
2006,06,21,08,13,12.30
2006,06,21,08,14,12.40
2006,06,21,08,15,12.50
2006,06,21,08,16,12.50
2006,06,21,08,17,12.60
2006,06,21,08,18,12.70
2006,06,21,08,19,12.80
2006,06,21,08,20,12.80
2006,06,21,08,21,12.90
2006,06,21,08,22,13.00
2006,06,21,08,23,13.10
2006,06,21,08,24,13.20
2006,06,21,08,25,13.30
2006,06,21,08,26,13.50
2006,06,21,08,27,13.60
2006,06,21,08,28,13.70
2006,06,21,08,29,13.80
2006,06,21,08,30,13.90
2006,06,21,08,31,13.90
2006,06,21,08,32,13.90
2006,06,21,08,33,13.90
2006,06,21,08,34,14.00
2006,06,21,08,35,14.10
2006,06,21,08,36,14.20
2006,06,21,08,37,14.20
2006,06,21,08,38,14.20
2006,06,21,08,39,14.20
2006,06,21,08,40,14.30
2006,06,21,08,41,14.30
2006,06,21,08,42,14.30
2006,06,21,08,43,14.30
2006,06,21,08,44,14.20
2006,06,21,08,45,14.20
2006,06,21,08,46,14.20
2006,06,21,08,47,14.30
2006,06,21,08,48,14.40
2006,06,21,08,49,14.40
2006,06,21,08,50,14.40
2006,06,21,08,51,14.50
2006,06,21,08,52,14.50
2006,06,21,08,53,14.60
2006,06,21,08,54,14.60
2006,06,21,08,55,14.70
2006,06,21,08,56,14.70
2006,06,21,08,57,14.70
2006,06,21,08,58,14.80
2006,06,21,08,59,14.90
2006,06,21,09,00,15.00
2006,06,21,09,01,15.00
2006,06,21,09,02,15.10
2006,06,21,09,03,15.20
2006,06,21,09,04,15.30
2006,06,21,09,05,15.30
2006,06,21,09,06,15.30
2006,06,21,09,07,15.30
2006,06,21,09,08,15.30
2006,06,21,09,09,15.30
2006,06,21,09,10,15.30
2006,06,21,09,11,15.30
2006,06,21,09,12,15.40
2006,06,21,09,13,15.40
2006,06,21,09,14,15.40
2006,06,21,09,15,15.40
2006,06,21,09,16,15.50
2006,06,21,09,17,15.60
2006,06,21,09,18,15.70
2006,06,21,09,19,15.80
2006,06,21,09,20,15.90
2006,06,21,09,21,16.10
2006,06,21,09,22,16.10
2006,06,21,09,23,16.20
2006,06,21,09,24,16.20
2006,06,21,09,25,16.20
2006,06,21,09,26,16.10
2006,06,21,09,27,16.10
2006,06,21,09,28,16.10
2006,06,21,09,29,16.10
2006,06,21,09,30,16.10
2006,06,21,09,31,16.00
2006,06,21,09,32,15.90
2006,06,21,09,33,15.90
2006,06,21,09,34,15.90
2006,06,21,09,35,15.90
2006,06,21,09,36,16.00
2006,06,21,09,37,16.10
2006,06,21,09,38,16.20
2006,06,21,09,39,16.30
2006,06,21,09,40,16.30
2006,06,21,09,41,16.40
2006,06,21,09,42,16.50
2006,06,21,09,43,16.60
2006,06,21,09,44,16.70
2006,06,21,09,45,16.70
2006,06,21,09,46,16.70
2006,06,21,09,47,16.70
2006,06,21,09,48,16.70
2006,06,21,09,49,16.80
2006,06,21,09,50,16.80
2006,06,21,09,51,16.90
2006,06,21,09,52,17.00
2006,06,21,09,53,17.10
2006,06,21,09,54,17.10
2006,06,21,09,55,17.00
2006,06,21,09,56,16.90
2006,06,21,09,57,16.90
2006,06,21,09,58,16.90
2006,06,21,09,59,16.90
2006,06,21,10,00,16.90
2006,06,21,10,01,17.00
2006,06,21,10,02,17.00
2006,06,21,10,03,17.00
2006,06,21,10,04,16.90
2006,06,21,10,05,16.80
2006,06,21,10,06,16.80
2006,06,21,10,07,16.90
2006,06,21,10,08,17.00
2006,06,21,10,09,17.00
2006,06,21,10,10,17.10
2006,06,21,10,11,17.20
2006,06,21,10,12,17.30
2006,06,21,10,13,17.30
2006,06,21,10,14,17.30
2006,06,21,10,15,17.40
2006,06,21,10,16,17.50
2006,06,21,10,17,17.50
2006,06,21,10,18,17.50
2006,06,21,10,19,17.50
2006,06,21,10,20,17.40
2006,06,21,10,21,17.30
2006,06,21,10,22,17.30
2006,06,21,10,23,17.10
2006,06,21,10,24,16.90
2006,06,21,10,25,16.70
2006,06,21,10,26,16.60
2006,06,21,10,27,16.50
2006,06,21,10,28,16.40
2006,06,21,10,29,16.40
2006,06,21,10,30,16.40
2006,06,21,10,31,16.40
2006,06,21,10,32,16.40
2006,06,21,10,33,16.40
2006,06,21,10,34,16.40
2006,06,21,10,35,16.40
2006,06,21,10,36,16.40
2006,06,21,10,37,16.40
2006,06,21,10,38,16.40
2006,06,21,10,39,16.40
2006,06,21,10,40,16.30
2006,06,21,10,41,16.30
2006,06,21,10,42,16.30
2006,06,21,10,43,16.20
2006,06,21,10,44,16.20
2006,06,21,10,45,16.20
2006,06,21,10,46,16.20
2006,06,21,10,47,16.10
2006,06,21,10,48,16.10
2006,06,21,10,49,15.90
2006,06,21,10,50,15.90
2006,06,21,10,51,15.90
2006,06,21,10,52,15.90
2006,06,21,10,53,15.90
2006,06,21,10,54,15.90
2006,06,21,10,55,15.90
2006,06,21,10,56,15.90
2006,06,21,10,57,16.00
2006,06,21,10,58,16.10
2006,06,21,10,59,16.10
2006,06,21,11,00,16.10
2006,06,21,11,01,16.10
2006,06,21,11,02,16.10
2006,06,21,11,03,16.10
2006,06,21,11,04,16.10
2006,06,21,11,05,16.20
2006,06,21,11,06,16.30
2006,06,21,11,07,16.40
2006,06,21,11,08,16.50
2006,06,21,11,09,16.60
2006,06,21,11,10,16.70
2006,06,21,11,11,16.70
2006,06,21,11,12,16.70
2006,06,21,11,13,16.80
2006,06,21,11,14,16.90
2006,06,21,11,15,16.90
2006,06,21,11,16,16.90
2006,06,21,11,17,16.90
2006,06,21,11,18,16.80
2006,06,21,11,19,16.80
2006,06,21,11,20,16.80
2006,06,21,11,21,16.90
2006,06,21,11,22,16.90
2006,06,21,11,23,16.90
2006,06,21,11,24,16.90
2006,06,21,11,25,16.80
2006,06,21,11,26,16.80
2006,06,21,11,27,16.80
2006,06,21,11,28,16.80
2006,06,21,11,29,16.90
2006,06,21,11,30,16.90
2006,06,21,11,31,16.80
2006,06,21,11,32,16.80
2006,06,21,11,33,16.80
2006,06,21,11,34,16.70
2006,06,21,11,35,16.70
2006,06,21,11,36,16.70
2006,06,21,11,37,16.60
2006,06,21,11,38,16.60
2006,06,21,11,39,16.60
2006,06,21,11,40,16.60
2006,06,21,11,41,16.40
2006,06,21,11,42,16.40
2006,06,21,11,43,16.40
2006,06,21,11,44,16.30
2006,06,21,11,45,16.20
2006,06,21,11,46,16.20
2006,06,21,11,47,16.10
2006,06,21,11,48,16.10
2006,06,21,11,49,16.10
2006,06,21,11,50,16.10
2006,06,21,11,51,16.00
2006,06,21,11,52,15.90
2006,06,21,11,53,15.80
2006,06,21,11,54,15.80
2006,06,21,11,55,15.80
2006,06,21,11,56,15.90
2006,06,21,11,57,15.90
2006,06,21,11,58,16.00
2006,06,21,11,59,16.10
2006,06,21,12,00,16.10
2006,06,21,12,01,16.00
2006,06,21,12,02,16.00
2006,06,21,12,03,16.00
2006,06,21,12,04,16.10
2006,06,21,12,05,16.10
2006,06,21,12,06,16.10
2006,06,21,12,07,16.10
2006,06,21,12,08,16.20
2006,06,21,12,09,16.20
2006,06,21,12,10,16.30
2006,06,21,12,11,16.30
2006,06,21,12,12,16.30
2006,06,21,12,13,16.20
2006,06,21,12,14,16.30
2006,06,21,12,15,16.30
2006,06,21,12,16,16.30
2006,06,21,12,17,16.20
2006,06,21,12,18,16.20
2006,06,21,12,19,16.20
2006,06,21,12,20,16.30
2006,06,21,12,21,16.30
2006,06,21,12,22,16.20
2006,06,21,12,23,16.20
2006,06,21,12,24,16.10
2006,06,21,12,25,16.10
2006,06,21,12,26,16.10
2006,06,21,12,27,16.10
2006,06,21,12,28,16.10
2006,06,21,12,29,16.10
2006,06,21,12,30,16.10
2006,06,21,12,31,16.10
2006,06,21,12,32,16.10
2006,06,21,12,33,16.10
2006,06,21,12,34,16.10
2006,06,21,12,35,16.10
2006,06,21,12,36,16.20
2006,06,21,12,37,16.20
2006,06,21,12,38,16.20
2006,06,21,12,39,16.20
2006,06,21,12,40,16.20
2006,06,21,12,41,16.20
2006,06,21,12,42,16.20
2006,06,21,12,43,16.20
2006,06,21,12,44,16.20
2006,06,21,12,45,16.20
2006,06,21,12,46,16.20
2006,06,21,12,47,16.20
2006,06,21,12,48,16.20
2006,06,21,12,49,16.20
2006,06,21,12,50,16.20
2006,06,21,12,51,16.20
2006,06,21,12,52,16.20
2006,06,21,12,53,16.30
2006,06,21,12,54,16.30
2006,06,21,12,55,16.40
2006,06,21,12,56,16.40
2006,06,21,12,57,16.40
2006,06,21,12,58,16.40
2006,06,21,12,59,16.50
2006,06,21,13,00,16.60
2006,06,21,13,01,16.60
2006,06,21,13,02,16.70
2006,06,21,13,03,16.70
2006,06,21,13,04,16.60
2006,06,21,13,05,16.60
2006,06,21,13,06,16.60
2006,06,21,13,07,16.60
2006,06,21,13,08,16.50
2006,06,21,13,09,16.60
2006,06,21,13,10,16.60
2006,06,21,13,11,16.60
2006,06,21,13,12,16.60
2006,06,21,13,13,16.60
2006,06,21,13,14,16.60
2006,06,21,13,15,16.70
2006,06,21,13,16,16.70
2006,06,21,13,17,16.70
2006,06,21,13,18,16.70
2006,06,21,13,19,16.70
2006,06,21,13,20,16.60
2006,06,21,13,21,16.70
2006,06,21,13,22,16.70
2006,06,21,13,23,16.60
2006,06,21,13,24,16.60
2006,06,21,13,25,16.60
2006,06,21,13,26,16.60
2006,06,21,13,27,16.60
2006,06,21,13,28,16.70
2006,06,21,13,29,16.70
2006,06,21,13,30,16.70
2006,06,21,13,31,16.70
2006,06,21,13,32,16.60
2006,06,21,13,33,16.60
2006,06,21,13,34,16.60
2006,06,21,13,35,16.70
2006,06,21,13,36,16.70
2006,06,21,13,37,16.70
2006,06,21,13,38,16.70
2006,06,21,13,39,16.70
2006,06,21,13,40,16.80
2006,06,21,13,41,16.80
2006,06,21,13,42,16.80
2006,06,21,13,43,16.80
2006,06,21,13,44,16.80
2006,06,21,13,45,16.80
2006,06,21,13,46,16.80
2006,06,21,13,47,16.80
2006,06,21,13,48,16.80
2006,06,21,13,49,16.90
2006,06,21,13,50,16.90
2006,06,21,13,51,16.90
2006,06,21,13,52,17.00
2006,06,21,13,53,17.00
2006,06,21,13,54,17.00
2006,06,21,13,55,17.00
2006,06,21,13,56,17.10
2006,06,21,13,57,17.10
2006,06,21,13,58,17.10
2006,06,21,13,59,17.20
2006,06,21,14,00,17.20
2006,06,21,14,01,17.30
2006,06,21,14,02,17.30
2006,06,21,14,03,17.30
2006,06,21,14,04,17.40
2006,06,21,14,05,17.40
2006,06,21,14,06,17.40
2006,06,21,14,07,17.50
2006,06,21,14,08,17.50
2006,06,21,14,09,17.60
2006,06,21,14,10,17.50
2006,06,21,14,11,17.40
2006,06,21,14,12,17.30
2006,06,21,14,13,17.30
2006,06,21,14,14,17.30
2006,06,21,14,15,17.30
2006,06,21,14,16,17.30
2006,06,21,14,17,17.40
2006,06,21,14,18,17.40
2006,06,21,14,19,17.40
2006,06,21,14,20,17.40
2006,06,21,14,21,17.40
2006,06,21,14,22,17.50
2006,06,21,14,23,17.50
2006,06,21,14,24,17.50
2006,06,21,14,25,17.50
2006,06,21,14,26,17.50
2006,06,21,14,27,17.60
2006,06,21,14,28,17.70
2006,06,21,14,29,17.70
2006,06,21,14,30,17.70
2006,06,21,14,31,17.80
2006,06,21,14,32,17.90
2006,06,21,14,33,17.90
2006,06,21,14,34,17.90
2006,06,21,14,35,17.90
2006,06,21,14,36,18.00
2006,06,21,14,37,18.10
2006,06,21,14,38,18.10
2006,06,21,14,39,18.20
2006,06,21,14,40,18.40
2006,06,21,14,41,18.60
2006,06,21,14,42,18.80
2006,06,21,14,43,18.90
2006,06,21,14,44,18.90
2006,06,21,14,45,18.90
2006,06,21,14,46,18.90
2006,06,21,14,47,19.00
2006,06,21,14,48,19.00
2006,06,21,14,49,19.10
2006,06,21,14,50,19.10
2006,06,21,14,51,19.00
2006,06,21,14,52,18.90
2006,06,21,14,53,18.90
2006,06,21,14,54,19.10
2006,06,21,14,55,19.10
2006,06,21,14,56,19.20
2006,06,21,14,57,19.30
2006,06,21,14,58,19.40
2006,06,21,14,59,19.50
2006,06,21,15,00,19.70
2006,06,21,15,01,19.70
2006,06,21,15,02,19.90
2006,06,21,15,03,19.90
2006,06,21,15,04,19.90
2006,06,21,15,05,20.00
2006,06,21,15,06,19.90
2006,06,21,15,07,19.90
2006,06,21,15,08,20.00
2006,06,21,15,09,20.10
2006,06,21,15,10,20.10
2006,06,21,15,11,20.00
2006,06,21,15,12,19.90
2006,06,21,15,13,19.90
2006,06,21,15,14,19.70
2006,06,21,15,15,19.60
2006,06,21,15,16,19.50
2006,06,21,15,17,19.40
2006,06,21,15,18,19.30
2006,06,21,15,19,19.10
2006,06,21,15,20,19.10
2006,06,21,15,21,19.10
2006,06,21,15,22,19.10
2006,06,21,15,23,19.10
2006,06,21,15,24,19.10
2006,06,21,15,25,19.10
2006,06,21,15,26,19.20
2006,06,21,15,27,19.20
2006,06,21,15,28,19.10
2006,06,21,15,29,19.10
2006,06,21,15,30,19.10
2006,06,21,15,31,19.00
2006,06,21,15,32,18.80
2006,06,21,15,33,18.90
2006,06,21,15,34,18.90
2006,06,21,15,35,18.80
2006,06,21,15,36,18.80
2006,06,21,15,37,18.70
2006,06,21,15,38,18.70
2006,06,21,15,39,18.60
2006,06,21,15,40,18.60
2006,06,21,15,41,18.60
2006,06,21,15,42,18.60
2006,06,21,15,43,18.50
2006,06,21,15,44,18.50
2006,06,21,15,45,18.50
2006,06,21,15,46,18.40
2006,06,21,15,47,18.40
2006,06,21,15,48,18.40
2006,06,21,15,49,18.40
2006,06,21,15,50,18.40
2006,06,21,15,51,18.50
2006,06,21,15,52,18.50
2006,06,21,15,53,18.50
2006,06,21,15,54,18.50
2006,06,21,15,55,18.50
2006,06,21,15,56,18.50
2006,06,21,15,57,18.50
2006,06,21,15,58,18.50
2006,06,21,15,59,18.50
2006,06,21,16,00,18.40
2006,06,21,16,01,18.40
2006,06,21,16,02,18.40
2006,06,21,16,03,18.40
2006,06,21,16,04,18.40
2006,06,21,16,05,18.50
2006,06,21,16,06,18.50
2006,06,21,16,07,18.50
2006,06,21,16,08,18.50
2006,06,21,16,09,18.50
2006,06,21,16,10,18.50
2006,06,21,16,11,18.50
2006,06,21,16,12,18.50
2006,06,21,16,13,18.50
2006,06,21,16,14,18.40
2006,06,21,16,15,18.30
2006,06,21,16,16,18.30
2006,06,21,16,17,18.30
2006,06,21,16,18,18.30
2006,06,21,16,19,18.30
2006,06,21,16,20,18.30
2006,06,21,16,21,18.30
2006,06,21,16,22,18.30
2006,06,21,16,23,18.40
2006,06,21,16,24,18.40
2006,06,21,16,25,18.40
2006,06,21,16,26,18.40
2006,06,21,16,27,18.40
2006,06,21,16,28,18.40
2006,06,21,16,29,18.40
2006,06,21,16,30,18.40
2006,06,21,16,31,18.50
2006,06,21,16,32,18.50
2006,06,21,16,33,18.50
2006,06,21,16,34,18.50
2006,06,21,16,35,18.50
2006,06,21,16,36,18.50
2006,06,21,16,37,18.50
2006,06,21,16,38,18.50
2006,06,21,16,39,18.50
2006,06,21,16,40,18.50
2006,06,21,16,41,18.40
2006,06,21,16,42,18.40
2006,06,21,16,43,18.50
2006,06,21,16,44,18.50
2006,06,21,16,45,18.50
2006,06,21,16,46,18.50
2006,06,21,16,47,18.60
2006,06,21,16,48,18.60
2006,06,21,16,49,18.70
2006,06,21,16,50,18.70
2006,06,21,16,51,18.80
2006,06,21,16,52,18.80
2006,06,21,16,53,18.80
2006,06,21,16,54,18.80
2006,06,21,16,55,18.70
2006,06,21,16,56,18.70
2006,06,21,16,57,18.70
2006,06,21,16,58,18.70
2006,06,21,16,59,18.70
2006,06,21,17,00,18.70
2006,06,21,17,01,18.80
2006,06,21,17,02,18.80
2006,06,21,17,03,18.80
2006,06,21,17,04,18.80
2006,06,21,17,05,18.80
2006,06,21,17,06,18.80
2006,06,21,17,07,18.80
2006,06,21,17,08,18.70
2006,06,21,17,09,18.70
2006,06,21,17,10,18.80
2006,06,21,17,11,18.80
2006,06,21,17,12,18.80
2006,06,21,17,13,18.80
2006,06,21,17,14,18.90
2006,06,21,17,15,18.80
2006,06,21,17,16,18.90
2006,06,21,17,17,18.80
2006,06,21,17,18,18.90
2006,06,21,17,19,18.90
2006,06,21,17,20,18.80
2006,06,21,17,21,18.80
2006,06,21,17,22,18.80
2006,06,21,17,23,18.80
2006,06,21,17,24,18.80
2006,06,21,17,25,18.70
2006,06,21,17,26,18.70
2006,06,21,17,27,18.70
2006,06,21,17,28,18.70
2006,06,21,17,29,18.70
2006,06,21,17,30,18.60
2006,06,21,17,31,18.60
2006,06,21,17,32,18.60
2006,06,21,17,33,18.60
2006,06,21,17,34,18.50
2006,06,21,17,35,18.50
2006,06,21,17,36,18.40
2006,06,21,17,37,18.30